Location: Clatteringshaws Loch
(55.0508°N, 4.2860°W)
Time: 14:37:18
(UTC+00:00)

Amateur Radio Satellites - All Passes

Search period start: 10 December 2016 14:07
Search period end: 11 December 2016 14:07
Location: Clatteringshaws Loch, 55.0508°N, 4.2860°W

Satellite Date Start Highest point End Downlink Frequencies (MHz)
Time Altitude Azimuth
MOZHAYETS 4 10 Dec 14:27:45 14:28:23 10° 82° (E) 14:29:00
BRITE-PL 10 Dec 14:28:02 14:30:27 14° 47° (NE) 14:32:59 437.365/2234.400
GONETS M04 10 Dec 14:28:06 14:32:09 14° 295° (WNW) 14:36:13
ITUPSAT 1 10 Dec 14:31:41 14:36:00 33° 95° (E) 14:40:18 437.325
Cosmos 2491 10 Dec 14:36:33 14:41:47 17° 35° (NE) 14:46:59 435.465 / 435.565
O/OREOS (USA 219) 10 Dec 14:37:49 14:40:54 18° 102° (ESE) 14:43:59 437.305
Oscar 19 10 Dec 14:37:54 14:40:13 13° 277° (W) 14:42:33 437.125/150
HORYU 2 10 Dec 14:42:37 14:44:56 14° 49° (NE) 14:47:14 437.375
PCSat 10 Dec 14:52:45 14:57:08 24° 352° (N) 15:01:32 145.827
AISAT 10 Dec 15:00:41 15:01:44 11° 314° (NW) 15:02:46 437.250
TISAT 1 10 Dec 15:01:49 15:05:44 37° 296° (WNW) 15:09:37 437.305
Gurwin Techsat 1B 10 Dec 15:11:51 15:14:19 13° 278° (W) 15:16:46 435.225
HO-68 10 Dec 15:12:33 15:14:59 12° 20° (NNE) 15:17:25 435.675
AUBIESAT-1 10 Dec 15:13:05 15:17:32 44° 105° (ESE) 15:21:46 437.475
ITAMSAT 1 10 Dec 15:13:15 15:18:02 36° 264° (W) 15:22:50 435.822/435.867
AIST 2 10 Dec 15:16:35 15:20:47 62° 229° (SW) 15:24:58 435.215
GOMX 1 10 Dec 15:16:40 15:19:58 18° 50° (NE) 15:23:22 467.674
ISS 10 Dec 15:19:08 15:21:01 15° 146° (SE) 15:22:56 145.825
RS-15 10 Dec 15:19:16 15:31:39 80° 230° (SW) 15:43:48 29.354- 29.394
M-CUBED/EXP-1 PRIME 10 Dec 15:29:22 15:34:05 71° 110° (ESE) 15:38:37 437.505
UKube-1 10 Dec 15:31:48 15:33:16 12° 313° (NW) 15:34:45 .
SWISSCUBE 10 Dec 15:34:49 15:39:35 73° 290° (WNW) 15:44:20 437.505
BEESAT 10 Dec 15:38:20 15:43:06 75° 290° (WNW) 15:47:51 436.000
CUTE-I 10 Dec 15:43:10 15:47:00 20° 50° (NE) 15:50:50 437.470
AO-7 10 Dec 15:44:09 15:51:59 44° 262° (W) 15:59:55 29.400- 29.500
NOAA 15 10 Dec 15:49:58 15:54:01 23° 53° (NE) 15:58:05 137.62
STARS 10 Dec 15:51:26 15:53:37 13° 86° (E) 15:55:47 437.465
KKS-1 10 Dec 15:57:42 16:01:35 27° 94° (E) 16:05:24 437.445
MOZHAYETS 4 10 Dec 16:01:58 16:06:31 62° 102° (ESE) 16:11:02
BRITE-PL 10 Dec 16:03:27 16:07:56 60° 69° (ENE) 16:12:51 437.365/2234.400
ITUPSAT 1 10 Dec 16:09:27 16:14:00 45° 295° (WNW) 16:18:30 437.325
Cubesat XI-IV 10 Dec 16:09:45 16:14:18 29° 56° (NE) 16:18:50 437.490
LilacSat-2 10 Dec 16:13:26 16:16:17 20° 60° (ENE) 16:19:07 437.200
O/OREOS (USA 219) 10 Dec 16:15:12 16:19:46 80° 301° (WNW) 16:24:20 437.305
HORYU 2 10 Dec 16:16:16 16:20:44 66° 69° (ENE) 16:25:11 437.375
CUBESAT XI-V 10 Dec 16:18:04 16:21:30 20° 89° (E) 16:24:55 437.345
NOAA 18 10 Dec 16:31:40 16:36:28 31° 56° (NE) 16:41:18 137.9125
Cosmos 2491 10 Dec 16:33:10 16:41:31 46° 64° (ENE) 16:49:48 435.465 / 435.565
PCSat 10 Dec 16:37:31 16:42:11 28° 18° (NNE) 16:46:49 145.827
DOVE 4 10 Dec 16:38:45 16:43:18 34° 61° (ENE) 16:48:00 437.250
AUBIESAT-1 10 Dec 16:47:38 16:51:50 35° 305° (NW) 16:55:54 437.475
GOMX 1 10 Dec 16:52:21 16:57:11 75° 72° (ENE) 17:02:26 467.674
ISS 10 Dec 16:53:50 16:56:54 36° 165° (SSE) 16:59:59 145.825
HO-68 10 Dec 16:54:40 17:00:28 28° 45° (NE) 17:06:18 435.675
AIST 2 10 Dec 16:56:55 16:58:28 12° 249° (WSW) 17:00:01 435.215
M-CUBED/EXP-1 PRIME 10 Dec 17:04:18 17:08:09 25° 310° (NW) 17:11:54 437.505
YUBILEINY 10 Dec 17:10:15 17:16:35 23° 73° (ENE) 17:22:56 435.215
SWISSCUBE 10 Dec 17:13:45 17:16:40 16° 310° (NW) 17:19:34 437.505
Cosmos 2504 10 Dec 17:14:20 17:17:52 13° 62° (ENE) 17:21:25 435.465 / 435.565
BEESAT 10 Dec 17:17:13 17:20:11 17° 310° (NW) 17:23:08 436.000
CUTE-I 10 Dec 17:21:00 17:26:23 82° 70° (ENE) 17:31:46 437.470
CINEMA 3 10 Dec 17:22:26 17:26:36 27° 58° (ENE) 17:30:45 145.822/145.860
STARS 10 Dec 17:26:14 17:30:43 82° 107° (ESE) 17:35:07 437.465
NOAA 15 10 Dec 17:28:01 17:33:16 83° 253° (WSW) 17:38:35 137.62
RS-15 10 Dec 17:32:23 17:42:28 32° 256° (WSW) 17:52:21 29.354- 29.394
KKS-1 10 Dec 17:34:01 17:38:22 49° 293° (WNW) 17:42:41 437.445
MOZHAYETS 4 10 Dec 17:39:42 17:43:22 24° 302° (WNW) 17:47:02
BRITE-PL 10 Dec 17:43:13 17:46:55 24° 272° (W) 17:50:52 437.365/2234.400
CUTE 1.7 + AOD 2 10 Dec 17:43:36 17:46:49 22° 59° (ENE) 17:50:03 437.475
UWE-3 10 Dec 17:43:54 17:44:33 10° 47° (NE) 17:45:13 435.000/436.395/437.385
AAUSAT CUBESAT 2 10 Dec 17:45:57 17:47:03 11° 50° (NE) 17:48:09 437.432
AO-7 10 Dec 17:46:10 17:47:18 10° 286° (WNW) 17:48:27 29.400- 29.500
LilacSat-2 10 Dec 17:46:29 17:50:17 57° 260° (W) 17:54:04 437.200
Cubesat XI-IV 10 Dec 17:48:40 17:54:02 67° 257° (WSW) 17:59:24 437.490
ITUPSAT 1 10 Dec 17:49:27 17:50:45 11° 317° (NW) 17:52:02 437.325
HORYU 2 10 Dec 17:54:21 17:57:42 20° 269° (W) 18:01:05 437.375
CUBESAT XI-V 10 Dec 17:54:43 17:59:23 73° 289° (WNW) 18:04:03 437.345
O/OREOS (USA 219) 10 Dec 17:56:27 17:59:54 21° 324° (NW) 18:03:20 437.305
CANX-2 10 Dec 18:01:57 18:05:43 33° 64° (ENE) 18:09:30 2200.000
NOAA 18 10 Dec 18:11:19 18:16:50 64° 256° (WSW) 18:22:24 137.9125
ZACube-1 10 Dec 18:12:52 18:14:22 12° 49° (NE) 18:15:52 437.345
CUSAT 1 10 Dec 18:13:47 18:16:12 16° 63° (ENE) 18:18:59 437.405
DOVE 4 10 Dec 18:15:54 18:20:48 51° 262° (W) 18:25:57 437.250
SEEDS 10 Dec 18:17:13 18:20:49 29° 63° (ENE) 18:24:27 437.485
FUNcube-1 10 Dec 18:17:35 18:19:09 12° 49° (NE) 18:20:43 145.935
COMPASS 1 10 Dec 18:18:38 18:21:52 23° 59° (ENE) 18:25:08 437.405
PCSat 10 Dec 18:21:08 18:26:33 63° 42° (NE) 18:31:57 145.827
AUBIESAT-1 10 Dec 18:24:18 18:25:04 10° 325° (NW) 18:25:50 437.475
SO-50 10 Dec 18:26:20 18:28:51 14° 112° (ESE) 18:31:22 436.795
ISS 10 Dec 18:29:55 18:33:05 45° 185° (S) 18:36:16 145.825
Cosmos 2491 10 Dec 18:30:15 18:38:44 59° 269° (W) 18:47:12 435.465 / 435.565
GOMX 1 10 Dec 18:32:12 18:35:55 21° 274° (W) 18:39:49 467.674
STRAND 1 10 Dec 18:38:02 18:41:46 20° 88° (E) 18:45:27 437.568
HO-68 10 Dec 18:40:11 18:47:22 83° 69° (ENE) 18:54:37 435.675
Oscar 11 10 Dec 18:40:30 18:43:08 16° 54° (NE) 18:45:47 145.826/435.025
CUBEBUG 2 10 Dec 18:43:47 18:48:05 37° 64° (ENE) 18:52:20 437.445
AIST 1 10 Dec 18:47:10 18:50:51 28° 88° (E) 18:54:35
CINEMA 3 10 Dec 18:58:23 19:03:22 66° 258° (WSW) 19:08:24 145.822/145.860
Cosmos 2504 10 Dec 19:00:50 19:08:56 47° 87° (E) 19:17:18 435.465 / 435.565
CUTE-I 10 Dec 19:03:05 19:07:05 21° 272° (W) 19:11:06 437.470
YUBILEINY 10 Dec 19:03:19 19:12:01 78° 97° (E) 19:20:50 435.215
STARS 10 Dec 19:03:26 19:06:33 19° 306° (NW) 19:09:39 437.465
NOAA 15 10 Dec 19:10:36 19:13:54 17° 274° (W) 19:17:13 137.62
KKS-1 10 Dec 19:12:42 19:13:57 11° 314° (NW) 19:15:13 437.445
UWE-3 10 Dec 19:15:38 19:20:02 46° 67° (ENE) 19:24:21 435.000/436.395/437.385
AAUSAT CUBESAT 2 10 Dec 19:17:40 19:21:41 57° 70° (ENE) 19:25:45 437.432
CUTE 1.7 + AOD 2 10 Dec 19:18:09 19:22:19 62° 258° (WSW) 19:26:31 437.475
Cubesat XI-IV 10 Dec 19:32:36 19:35:10 13° 277° (W) 19:37:44 437.490
CUBESAT XI-V 10 Dec 19:33:18 19:36:02 16° 309° (NW) 19:38:46 437.345
DELFI C3 10 Dec 19:34:22 19:37:01 18° 57° (ENE) 19:39:41 145.870
CANX-2 10 Dec 19:37:39 19:41:33 37° 264° (W) 19:45:30 2200.000
ZACube-1 10 Dec 19:45:25 19:49:48 54° 69° (ENE) 19:54:06 437.345
DANDE 10 Dec 19:48:25 19:50:50 25° 69° (ENE) 19:53:36 436.750
FUNcube-1 10 Dec 19:50:11 19:54:33 56° 69° (ENE) 19:58:52 145.935
SEEDS 10 Dec 19:52:29 19:56:26 41° 262° (W) 20:00:24 437.485
COMPASS 1 10 Dec 19:53:05 19:57:08 56° 259° (W) 20:01:14 437.405
CUSAT 1 10 Dec 19:54:39 19:58:17 68° 258° (WSW) 20:03:02 437.405
NOAA 18 10 Dec 19:56:02 19:58:38 13° 277° (W) 20:01:15 137.9125
SO-50 10 Dec 20:03:52 20:08:34 66° 132° (SE) 20:13:13 436.795
PCSat 10 Dec 20:04:51 20:09:44 35° 244° (WSW) 20:14:35 145.827
ISS 10 Dec 20:06:25 20:09:10 24° 205° (SSW) 20:11:54 145.825
PRISM 10 Dec 20:11:01 20:11:51 10° 84° (E) 20:12:40 437.425
Oscar 11 10 Dec 20:14:22 20:18:40 86° 75° (ENE) 20:23:01 145.826/435.025
STRAND 1 10 Dec 20:16:27 20:21:35 81° 289° (WNW) 20:26:41 437.568
CUBEBUG 2 10 Dec 20:20:15 20:24:42 40° 263° (W) 20:29:05 437.445
AIST 1 10 Dec 20:24:08 20:28:18 43° 289° (WNW) 20:32:31
Cosmos 2491 10 Dec 20:28:51 20:33:39 16° 293° (WNW) 20:38:28 435.465 / 435.565
HUMSAT D 10 Dec 20:29:43 20:33:25 32° 64° (ENE) 20:37:06 437.325/437.525
HO-68 10 Dec 20:29:58 20:35:56 28° 270° (W) 20:41:57 435.675
CINEMA 3 10 Dec 20:39:20 20:41:28 13° 279° (W) 20:43:36 145.822/145.860
UWE-3 10 Dec 20:52:35 20:56:39 30° 266° (W) 21:00:40 435.000/436.395/437.385
Cosmos 2504 10 Dec 20:53:43 21:02:15 58° 291° (WNW) 21:11:04 435.465 / 435.565
AAUSAT CUBESAT 2 10 Dec 20:54:24 20:57:31 21° 270° (W) 21:00:39 437.432
YUBILEINY 10 Dec 21:01:58 21:09:48 35° 303° (WNW) 21:17:43 435.215
DELFI C3 10 Dec 21:07:29 21:11:24 72° 257° (WSW) 21:15:22 145.870
TIGRISAT 10 Dec 21:07:41 21:08:14 10° 82° (E) 21:08:47 435.000
ANTELSAT 10 Dec 21:09:42 21:11:09 11° 83° (E) 21:12:36 437.575/2403.000
AISAT 10 Dec 21:16:15 21:18:12 13° 48° (NE) 21:20:10 437.250
O/OREOS (USA 219) 10 Dec 21:21:26 21:22:43 11° 16° (NNE) 21:24:01 437.305
ZACube-1 10 Dec 21:22:41 21:26:22 24° 268° (W) 21:30:01 437.345
CUBEBUG 1 10 Dec 21:27:26 21:30:26 18° 54° (NE) 21:33:27 437.445
FUNcube-1 10 Dec 21:27:30 21:31:06 24° 268° (W) 21:34:40 145.935
ESTCUBE 1 10 Dec 21:29:00 21:32:42 26° 59° (ENE) 21:36:26 437.505/2401.250
DANDE 10 Dec 21:31:12 21:33:28 20° 264° (W) 21:36:02 436.750
PRISM 10 Dec 21:43:45 21:47:56 70° 104° (ESE) 21:52:06 437.425
SO-50 10 Dec 21:44:53 21:49:20 39° 334° (NNW) 21:53:43 436.795
UKube-1 10 Dec 21:47:11 21:48:10 11° 46° (NE) 21:49:09 .
SPROUT 10 Dec 21:47:31 21:49:49 14° 51° (NE) 21:52:07 437.525
DX 1 10 Dec 21:48:49 21:50:58 14° 49° (NE) 21:53:09 434.975-435.025
VELOX 1 10 Dec 21:51:03 21:54:22 21° 56° (NE) 21:57:42 145.980
Cosmos 2499 10 Dec 21:52:11 21:55:15 12° 62° (ENE) 21:58:19 435.465 / 435.565
Oscar 11 10 Dec 21:52:56 21:55:26 15° 274° (W) 21:57:57 145.826/435.025
GONETS M04 10 Dec 21:54:40 21:56:15 11° 60° (ENE) 21:57:50
STRAND 1 10 Dec 21:56:34 22:00:05 19° 310° (NW) 22:03:35 437.568
HUMSAT D 10 Dec 22:05:07 22:09:00 37° 263° (W) 22:12:53 437.325/437.525
JAS-2 10 Dec 22:10:44 22:12:48 12° 83° (E) 22:14:52 435.910
UNISAT 6 10 Dec 22:13:12 22:17:22 39° 97° (E) 22:21:25 437.425
50 SAT 10 Dec 22:16:37 22:19:18 21° 61° (ENE) 22:22:01 437.505
TIGRISAT 10 Dec 22:41:28 22:45:53 66° 102° (ESE) 22:50:10 435.000
ANTELSAT 10 Dec 22:44:19 22:48:44 73° 103° (ESE) 22:53:03 437.575/2403.000
AISAT 10 Dec 22:49:26 22:53:49 59° 69° (ENE) 22:58:15 437.250
Cosmos 2504 10 Dec 22:51:37 22:57:57 21° 318° (NW) 23:04:23 435.465 / 435.565
TISAT 1 10 Dec 22:51:39 22:53:30 13° 50° (NE) 22:55:19 437.305
O/OREOS (USA 219) 10 Dec 22:59:54 23:03:44 26° 41° (NE) 23:07:32 437.305
CUBEBUG 1 10 Dec 23:01:46 23:06:10 86° 254° (WSW) 23:10:38 437.445
ESTCUBE 1 10 Dec 23:04:52 23:09:16 56° 259° (W) 23:13:43 437.505/2401.250
YUBILEINY 10 Dec 23:06:06 23:10:10 14° 333° (NNW) 23:14:15 435.215
M-CUBED/EXP-1 PRIME 10 Dec 23:16:21 23:18:18 13° 38° (NE) 23:20:18 437.505
UKube-1 10 Dec 23:19:06 23:23:16 49° 67° (ENE) 23:27:29 .
PRISM 10 Dec 23:19:47 23:22:50 20° 304° (WNW) 23:25:53 437.425
NANOSAT C BR1 10 Dec 23:20:23 23:23:52 24° 92° (E) 23:27:18 145.865
SPROUT 10 Dec 23:20:44 23:25:02 73° 72° (ENE) 23:29:22 437.525
DX 1 10 Dec 23:22:03 23:26:23 66° 70° (ENE) 23:30:46 434.975-435.025
VELOX 1 10 Dec 23:25:58 23:30:24 73° 256° (WSW) 23:34:53 145.980
SO-50 10 Dec 23:26:58 23:30:52 25° 358° (N) 23:34:42 436.795
QB50P2 10 Dec 23:31:07 23:35:01 33° 96° (E) 23:38:51 145.880/145.840
POLYITAN 1 10 Dec 23:31:32 23:35:22 32° 96° (E) 23:39:09 437.675
SWISSCUBE 10 Dec 23:36:38 23:38:27 12° 45° (NE) 23:40:17 437.505
Cosmos 2499 10 Dec 23:37:52 23:46:01 45° 86° (E) 23:54:16 435.465 / 435.565
DUCHIFAT 1 10 Dec 23:39:39 23:43:29 33° 96° (E) 23:47:17 145.980
BEESAT 10 Dec 23:40:12 23:41:57 12° 45° (NE) 23:43:41 436.000
GONETS M04 10 Dec 23:42:34 23:50:32 43° 85° (E) 23:58:31
QB50P1 10 Dec 23:42:45 23:46:46 39° 98° (E) 23:50:45 145.935-145.965
50 SAT 10 Dec 23:49:00 23:52:22 45° 260° (W) 23:55:48 437.505
UNISAT 6 10 Dec 23:50:05 23:54:02 33° 298° (WNW) 23:57:55 437.425
JAS-2 10 Dec 23:53:48 23:59:00 67° 104° (ESE) 00:04:24 435.910
POPSAT HIP 1 11 Dec 00:04:44 00:08:59 61° 102° (ESE) 00:13:09 437.405
ITUPSAT 1 11 Dec 00:09:33 00:12:45 18° 51° (NE) 00:15:56 437.325
AO-85 11 Dec 00:10:20 00:12:14 12° 112° (ESE) 00:14:05 145.980
BUGSAT 1 11 Dec 00:15:25 00:19:11 31° 95° (E) 00:22:54 437.445
TIGRISAT 11 Dec 00:18:49 00:22:12 22° 303° (WNW) 00:25:31 435.000
ANTELSAT 11 Dec 00:21:46 00:25:00 20° 304° (NW) 00:28:11 437.575/2403.000
TISAT 1 11 Dec 00:24:09 00:28:21 63° 69° (ENE) 00:32:34 437.305
AISAT 11 Dec 00:27:07 00:30:39 23° 269° (W) 00:34:13 437.250
AUBIESAT-1 11 Dec 00:31:12 00:35:06 31° 53° (NE) 00:39:08 437.475
O/OREOS (USA 219) 11 Dec 00:39:06 00:43:35 69° 243° (WSW) 00:48:01 437.305
CUBEBUG 1 11 Dec 00:40:51 00:43:09 14° 274° (W) 00:45:30 437.445
M-CUBED/EXP-1 PRIME 11 Dec 00:47:31 00:51:45 45° 59° (ENE) 00:56:12 437.505
Cosmos 2504 11 Dec 00:54:49 00:55:59 10° 350° (N) 00:57:08 435.465 / 435.565
NANOSAT C BR1 11 Dec 00:55:44 00:59:51 50° 292° (WNW) 01:03:55 145.865
UKube-1 11 Dec 00:55:55 00:59:33 26° 266° (W) 01:03:13 .
SPROUT 11 Dec 00:58:32 01:01:28 18° 272° (W) 01:04:26 437.525
Oscar 19 11 Dec 00:59:11 01:03:32 26° 91° (E) 01:07:52 437.125/150
DX 1 11 Dec 00:59:47 01:03:01 20° 270° (W) 01:06:17 434.975-435.025
VELOX 1 11 Dec 01:05:59 01:07:41 12° 276° (W) 01:09:24 145.980
QB50P2 11 Dec 01:06:55 01:10:51 37° 296° (WNW) 01:14:45 145.880/145.840
POLYITAN 1 11 Dec 01:07:18 01:11:15 38° 295° (WNW) 01:15:10 437.675
SO-50 11 Dec 01:08:14 01:12:28 34° 22° (NNE) 01:16:38 436.795
SWISSCUBE 11 Dec 01:10:39 01:15:16 50° 66° (ENE) 01:19:52 437.505
YUBILEINY 11 Dec 01:12:00 01:12:30 10° 9° (N) 01:12:59 435.215
BEESAT 11 Dec 01:14:08 01:18:43 49° 66° (ENE) 01:23:20 436.000
DUCHIFAT 1 11 Dec 01:15:19 01:19:14 37° 296° (WNW) 01:23:06 145.980
QB50P1 11 Dec 01:18:42 01:22:29 31° 297° (WNW) 01:26:14 145.935-145.965
KKS-1 11 Dec 01:28:50 01:30:53 13° 48° (NE) 01:32:56 437.445
Cosmos 2499 11 Dec 01:30:15 01:38:58 62° 289° (WNW) 01:47:47 435.465 / 435.565
MOZHAYETS 4 11 Dec 01:34:45 01:38:25 24° 58° (ENE) 01:42:04
Gurwin Techsat 1B 11 Dec 01:36:59 01:41:39 30° 93° (E) 01:46:15 435.225
GONETS M04 11 Dec 01:38:31 01:47:07 62° 289° (WNW) 01:55:46
JAS-2 11 Dec 01:39:34 01:43:49 26° 304° (NW) 01:48:09 435.910
POPSAT HIP 1 11 Dec 01:41:07 01:44:25 22° 302° (WNW) 01:47:42 437.405
ITUPSAT 1 11 Dec 01:45:09 01:49:57 83° 71° (ENE) 01:54:45 437.325
AO-85 11 Dec 01:47:16 01:51:55 59° 130° (SE) 01:56:15 145.980
AO-7 11 Dec 01:47:20 01:49:19 11° 75° (ENE) 01:51:17 29.400- 29.500
BUGSAT 1 11 Dec 01:50:43 01:54:38 38° 295° (WNW) 01:58:30 437.445
TISAT 1 11 Dec 02:01:14 02:04:23 20° 270° (W) 02:07:34 437.305
AUBIESAT-1 11 Dec 02:05:00 02:09:17 53° 254° (WSW) 02:13:49 437.475
O/OREOS (USA 219) 11 Dec 02:20:38 02:22:07 11° 263° (W) 02:23:35 437.305
M-CUBED/EXP-1 PRIME 11 Dec 02:22:21 02:26:20 33° 259° (W) 02:30:32 437.505
NANOSAT C BR1 11 Dec 02:33:55 02:34:39 10° 313° (NW) 02:35:23 145.865
Oscar 19 11 Dec 02:38:08 02:43:17 64° 292° (WNW) 02:48:26 437.125/150
SO-50 11 Dec 02:48:47 02:53:24 83° 224° (SW) 02:57:54 436.795
SWISSCUBE 11 Dec 02:49:08 02:53:17 29° 266° (W) 02:57:28 437.505
Cosmos 2504 11 Dec 02:51:03 02:54:46 13° 24° (NNE) 02:58:27 435.465 / 435.565
BEESAT 11 Dec 02:52:32 02:56:44 30° 266° (W) 03:00:56 436.000
STARS 11 Dec 02:53:59 02:57:50 30° 60° (ENE) 03:01:42 437.465
KKS-1 11 Dec 03:02:11 03:06:36 60° 69° (ENE) 03:11:03 437.445
YUBILEINY 11 Dec 03:07:45 03:14:06 21° 42° (NE) 03:20:26 435.215
MOZHAYETS 4 11 Dec 03:10:42 03:15:15 63° 258° (WSW) 03:19:48
Gurwin Techsat 1B 11 Dec 03:16:42 03:21:57 58° 293° (WNW) 03:27:09 435.225
ITAMSAT 1 11 Dec 03:18:01 03:23:04 48° 100° (E) 03:28:04 435.822/435.867
ITUPSAT 1 11 Dec 03:25:10 03:28:24 18° 272° (W) 03:31:39 437.325
Cosmos 2499 11 Dec 03:27:38 03:34:14 22° 316° (NW) 03:40:49 435.465 / 435.565
CUBESAT XI-V 11 Dec 03:27:54 03:32:13 41° 65° (ENE) 03:36:34 437.345
AO-85 11 Dec 03:28:13 03:32:34 39° 331° (NNW) 03:36:36 145.980
AO-7 11 Dec 03:36:34 03:44:34 45° 99° (E) 03:52:29 29.400- 29.500
GONETS M04 11 Dec 03:39:50 03:46:08 21° 317° (NW) 03:52:28
BEESAT 2 11 Dec 03:46:06 03:47:18 11° 111° (ESE) 03:48:29 435.950
BRITE-PL 11 Dec 04:01:10 04:04:25 16° 83° (E) 04:07:41 437.365/2234.400
Oscar 19 11 Dec 04:18:39 04:21:43 16° 313° (NW) 04:24:48 437.125/150
STRAND 1 11 Dec 04:24:38 04:27:19 14° 46° (NE) 04:30:00 437.568
STARS 11 Dec 04:29:45 04:34:02 47° 260° (W) 04:38:22 437.465
SO-50 11 Dec 04:30:12 04:33:13 18° 245° (WSW) 04:36:13 436.795
BEESAT 3 11 Dec 04:39:37 04:43:27 53° 130° (SE) 04:47:20 437.485
KKS-1 11 Dec 04:39:59 04:43:32 23° 269° (W) 04:47:07 437.445
Cosmos 2504 11 Dec 04:44:10 04:51:54 32° 54° (NE) 04:59:16 435.465 / 435.565
AIST 1 11 Dec 04:46:25 04:49:30 18° 59° (ENE) 04:52:34
GOMX 1 11 Dec 04:47:27 04:51:05 18° 84° (E) 04:54:42 467.674
MOZHAYETS 4 11 Dec 04:52:33 04:53:23 10° 278° (W) 04:54:12
ITAMSAT 1 11 Dec 04:57:45 05:02:27 36° 300° (WNW) 05:07:08 435.822/435.867
Gurwin Techsat 1B 11 Dec 04:57:57 05:00:55 15° 315° (NW) 05:03:53 435.225
YUBILEINY 11 Dec 05:04:26 05:13:12 60° 70° (ENE) 05:21:55 435.215
CUBESAT XI-V 11 Dec 05:05:31 05:09:41 34° 265° (W) 05:13:55 437.345
AO-85 11 Dec 05:10:27 05:13:57 22° 354° (N) 05:17:17 145.980
LilacSat-2 11 Dec 05:14:57 05:15:36 10° 84° (E) 05:16:15 437.200
BEESAT 2 11 Dec 05:20:23 05:24:18 63° 131° (SE) 05:28:17 435.950
AO-7 11 Dec 05:29:28 05:37:42 62° 301° (WNW) 05:45:53 29.400- 29.500
Cosmos 2499 11 Dec 05:30:30 05:31:49 10° 347° (NNW) 05:33:08 435.465 / 435.565
CUTE-I 11 Dec 05:31:27 05:35:14 19° 87° (E) 05:38:59 437.470
NOAA 15 11 Dec 05:36:17 05:40:22 22° 90° (E) 05:44:26 137.62
HORYU 2 11 Dec 05:36:24 05:40:43 47° 100° (E) 05:44:58 437.375
BRITE-PL 11 Dec 05:38:17 05:43:46 72° 103° (ESE) 05:49:27 437.365/2234.400
Cosmos 2491 11 Dec 05:44:10 05:51:59 38° 83° (E) 05:59:46 435.465 / 435.565
RS-15 11 Dec 05:52:32 06:02:22 32° 104° (ESE) 06:12:28 29.354- 29.394
Cubesat XI-IV 11 Dec 05:58:44 06:03:24 29° 93° (E) 06:08:00 437.490
STRAND 1 11 Dec 06:00:31 06:05:32 57° 67° (ENE) 06:10:34 437.568
HO-68 11 Dec 06:03:34 06:04:48 10° 75° (ENE) 06:06:01 435.675
DOVE 4 11 Dec 06:07:28 06:12:15 33° 92° (E) 06:16:53 437.250
BEESAT 3 11 Dec 06:17:34 06:21:16 37° 331° (NNW) 06:25:00 437.485
AIST 1 11 Dec 06:23:14 06:27:41 78° 261° (W) 06:32:05
GOMX 1 11 Dec 06:24:26 06:29:59 81° 104° (ESE) 06:35:29 467.674
NOAA 18 11 Dec 06:26:07 06:31:04 32° 94° (E) 06:35:57 137.9125
Cosmos 2504 11 Dec 06:37:38 06:46:33 89° 265° (W) 06:54:56 435.465 / 435.565
CINEMA 3 11 Dec 06:46:40 06:50:19 21° 88° (E) 06:53:50 145.822/145.860
LilacSat-2 11 Dec 06:46:47 06:50:35 80° 104° (ESE) 06:54:21 437.200
AO-85 11 Dec 06:51:50 06:55:32 28° 19° (NNE) 06:59:02 145.980
CUTE 1.7 + AOD 2 11 Dec 06:56:45 06:59:14 15° 87° (E) 07:01:43 437.475
BEESAT 2 11 Dec 06:58:41 07:02:22 34° 333° (NNW) 07:06:05 435.950
AIST 2 11 Dec 06:58:49 07:02:14 25° 120° (ESE) 07:05:42 435.215
YUBILEINY 11 Dec 07:01:38 07:09:50 45° 274° (W) 07:18:01 435.215
PRISM 11 Dec 07:05:46 07:08:52 21° 57° (ENE) 07:12:00 437.425
CUTE-I 11 Dec 07:10:39 07:16:01 87° 288° (WNW) 07:21:21 437.470
HORYU 2 11 Dec 07:13:16 07:17:07 29° 300° (WNW) 07:20:57 437.375
CANX-2 11 Dec 07:15:17 07:18:45 24° 92° (E) 07:22:13 2200.000
NOAA 15 11 Dec 07:15:26 07:20:44 77° 290° (WNW) 07:26:01 137.62
BRITE-PL 11 Dec 07:17:19 07:21:51 28° 302° (WNW) 07:26:33 437.365/2234.400
AO-7 11 Dec 07:22:42 07:29:05 25° 326° (NW) 07:35:27 29.400- 29.500
Cosmos 2499 11 Dec 07:27:14 07:30:20 12° 21° (NNE) 07:33:23 435.465 / 435.565
SEEDS 11 Dec 07:29:12 07:32:25 21° 90° (E) 07:35:38 437.485
COMPASS 1 11 Dec 07:29:27 07:31:57 15° 87° (E) 07:34:27 437.405
Cubesat XI-IV 11 Dec 07:38:33 07:43:49 58° 294° (WNW) 07:49:02 437.490
Cosmos 2491 11 Dec 07:39:38 07:48:22 68° 287° (WNW) 07:57:08 435.465 / 435.565
STRAND 1 11 Dec 07:40:37 07:45:02 29° 267° (W) 07:49:30 437.568
UNISAT 6 11 Dec 07:43:58 07:46:54 17° 53° (NE) 07:49:49 437.425
DOVE 4 11 Dec 07:45:00 07:50:10 52° 293° (WNW) 07:55:09 437.250
GONETS M04 11 Dec 07:46:14 07:50:01 13° 26° (NNE) 07:53:48
HO-68 11 Dec 07:47:37 07:54:32 46° 98° (E) 08:01:24 435.675
BEESAT 3 11 Dec 07:56:49 07:59:51 20° 354° (N) 08:02:54 437.485
Oscar 11 11 Dec 07:57:03 07:57:37 10° 82° (E) 07:58:12 145.826/435.025
RS-15 11 Dec 08:01:13 08:13:12 81° 131° (SE) 08:25:37 29.354- 29.394
AIST 1 11 Dec 08:02:46 08:04:30 12° 281° (W) 08:06:13
GOMX 1 11 Dec 08:03:10 08:07:31 25° 304° (NW) 08:11:54 467.674
CUBEBUG 2 11 Dec 08:03:55 08:07:43 28° 93° (E) 08:11:24 437.445
NOAA 18 11 Dec 08:06:37 08:12:03 57° 295° (WNW) 08:17:26 137.9125
TIGRISAT 11 Dec 08:11:09 08:14:53 24° 59° (ENE) 08:18:33 435.000
ANTELSAT 11 Dec 08:13:58 08:17:48 26° 60° (ENE) 08:21:36 437.575/2403.000
LilacSat-2 11 Dec 08:22:09 08:24:23 15° 304° (NW) 08:26:38 437.200
CINEMA 3 11 Dec 08:23:09 08:27:58 69° 289° (WNW) 08:32:33 145.822/145.860
AAUSAT CUBESAT 2 11 Dec 08:27:56 08:31:52 39° 97° (E) 08:35:47 437.432
JAS-2 11 Dec 08:31:08 08:34:39 17° 48° (NE) 08:38:01 435.910
CUTE 1.7 + AOD 2 11 Dec 08:31:25 08:35:40 83° 284° (WNW) 08:39:54 437.475
Cosmos 2504 11 Dec 08:31:53 08:38:50 27° 284° (WNW) 08:45:32 435.465 / 435.565
AO-85 11 Dec 08:32:20 08:36:28 84° 39° (NE) 08:40:24 145.980
UWE-3 11 Dec 08:34:27 08:38:26 35° 96° (E) 08:42:18 435.000/436.395/437.385
AIST 2 11 Dec 08:36:16 08:40:25 67° 321° (NW) 08:44:37 435.215
BEESAT 2 11 Dec 08:38:06 08:41:10 20° 356° (N) 08:44:15 435.950
PRISM 11 Dec 08:39:46 08:43:49 63° 257° (WSW) 08:47:56 437.425
CANX-2 11 Dec 08:50:46 08:54:52 50° 291° (WNW) 08:58:58 2200.000
CUTE-I 11 Dec 08:51:30 08:55:27 21° 309° (NW) 08:59:22 437.470
NOAA 15 11 Dec 08:56:10 08:59:47 19° 311° (NW) 09:03:24 137.62
QB50P2 11 Dec 08:57:31 08:59:21 13° 50° (NE) 09:01:10 145.880/145.840
POLYITAN 1 11 Dec 08:58:02 08:59:44 12° 49° (NE) 09:01:27 437.675
YUBILEINY 11 Dec 09:01:35 09:04:10 12° 299° (WNW) 09:06:46 435.215
ZACube-1 11 Dec 09:02:46 09:06:48 41° 98° (E) 09:10:45 437.345
COMPASS 1 11 Dec 09:03:53 09:08:04 80° 287° (WNW) 09:12:14 437.405
SEEDS 11 Dec 09:04:20 09:08:28 57° 290° (WNW) 09:12:35 437.485
DUCHIFAT 1 11 Dec 09:05:27 09:07:10 12° 50° (NE) 09:08:52 145.980
DANDE 11 Dec 09:06:05 09:08:06 15° 94° (E) 09:09:55 436.750
CUSAT 1 11 Dec 09:06:06 09:08:42 52° 100° (E) 09:11:17 437.405
FUNcube-1 11 Dec 09:07:10 09:11:11 42° 97° (E) 09:15:09 145.935
QB50P1 11 Dec 09:08:28 09:10:46 14° 52° (NE) 09:13:05 145.935-145.965
AO-7 11 Dec 09:14:54 09:19:07 15° 353° (N) 09:23:22 29.400- 29.500
PCSat 11 Dec 09:15:24 09:15:45 10° 101° (E) 09:16:07 145.827
UNISAT 6 11 Dec 09:18:20 09:23:00 82° 72° (ENE) 09:27:35 437.425
Cubesat XI-IV 11 Dec 09:19:54 09:22:55 15° 315° (NW) 09:25:56 437.490
Cosmos 2499 11 Dec 09:19:57 09:27:19 29° 52° (NE) 09:34:15 435.465 / 435.565
DOVE 4 11 Dec 09:24:10 09:26:45 14° 314° (NW) 09:29:18 437.250
POPSAT HIP 1 11 Dec 09:29:33 09:32:40 20° 56° (ENE) 09:35:47 437.405
Oscar 11 11 Dec 09:30:20 09:34:38 66° 102° (ESE) 09:38:56 145.826/435.025
BEESAT 3 11 Dec 09:35:16 09:38:37 25° 18° (NNE) 09:41:57 437.485
HO-68 11 Dec 09:35:28 09:42:26 54° 300° (WNW) 09:49:23 435.675
BUGSAT 1 11 Dec 09:39:36 09:41:02 12° 49° (NE) 09:42:28 437.445
CUBEBUG 2 11 Dec 09:40:20 09:44:33 44° 294° (WNW) 09:48:37 437.445
Cosmos 2491 11 Dec 09:40:30 09:47:11 23° 314° (NW) 09:53:53 435.465 / 435.565
HUMSAT D 11 Dec 09:41:15 09:44:26 21° 91° (E) 09:47:36 437.325/437.525
GONETS M04 11 Dec 09:42:41 09:50:27 34° 56° (ENE) 09:58:13
TIGRISAT 11 Dec 09:46:39 09:51:15 63° 258° (WSW) 09:55:49 435.000
NOAA 18 11 Dec 09:48:27 09:51:41 16° 317° (NW) 09:54:55 137.9125
ANTELSAT 11 Dec 09:49:41 09:54:16 57° 259° (WSW) 09:58:47 437.575/2403.000
CINEMA 3 11 Dec 10:01:30 10:04:15 15° 310° (NW) 10:06:57 145.822/145.860
AAUSAT CUBESAT 2 11 Dec 10:03:37 10:07:16 30° 297° (WNW) 10:10:55 437.432
CUTE 1.7 + AOD 2 11 Dec 10:08:27 10:10:53 15° 306° (NW) 10:13:19 437.475
UWE-3 11 Dec 10:10:59 10:14:55 35° 296° (WNW) 10:18:45 435.000/436.395/437.385
DELFI C3 11 Dec 10:12:13 10:16:12 70° 102° (ESE) 10:20:12 145.870
JAS-2 11 Dec 10:13:08 10:19:01 68° 69° (ENE) 10:24:21 435.910
AO-85 11 Dec 10:13:37 10:16:20 18° 244° (WSW) 10:18:58 145.980
RS-15 11 Dec 10:14:42 10:26:44 60° 341° (NNW) 10:39:02 29.354- 29.394
AIST 2 11 Dec 10:16:01 10:19:33 26° 343° (NNW) 10:23:08 435.215
BEESAT 2 11 Dec 10:16:36 10:20:05 27° 20° (NNE) 10:23:33 435.950
NANOSAT C BR1 11 Dec 10:18:48 10:22:53 44° 67° (ENE) 10:26:58 145.865
CANX-2 11 Dec 10:29:23 10:29:49 10° 312° (NW) 10:30:15 2200.000
QB50P2 11 Dec 10:30:07 10:34:21 62° 70° (ENE) 10:38:36 145.880/145.840
POLYITAN 1 11 Dec 10:30:30 10:34:43 60° 70° (ENE) 10:38:58 437.675
DUCHIFAT 1 11 Dec 10:37:51 10:42:03 61° 70° (ENE) 10:46:16 145.980
ZACube-1 11 Dec 10:39:18 10:43:00 30° 298° (WNW) 10:46:38 437.345
COMPASS 1 11 Dec 10:40:42 10:42:59 15° 307° (NW) 10:45:16 437.405
QB50P1 11 Dec 10:41:35 10:45:52 74° 72° (ENE) 10:50:10 145.935-145.965
SEEDS 11 Dec 10:42:01 10:43:21 11° 310° (NW) 10:44:40 437.485
FUNcube-1 11 Dec 10:43:40 10:47:20 29° 298° (WNW) 10:50:56 145.935
CUBEBUG 1 11 Dec 10:44:57 10:46:35 12° 84° (E) 10:48:13 437.445
Oscar 19 11 Dec 10:46:06 10:49:29 18° 49° (NE) 10:52:52 437.125/150
DANDE 11 Dec 10:47:29 10:50:39 36° 288° (WNW) 10:53:19 436.750
ESTCUBE 1 11 Dec 10:50:30 10:53:50 20° 89° (E) 10:57:09 437.505/2401.250
PCSat 11 Dec 10:52:43 10:57:54 49° 121° (ESE) 11:03:09 145.827
UNISAT 6 11 Dec 10:57:13 11:00:17 17° 272° (W) 11:03:20 437.425
AO-7 11 Dec 11:03:44 11:08:50 18° 20° (NNE) 11:13:58 29.400- 29.500
POPSAT HIP 1 11 Dec 11:03:44 11:08:02 73° 257° (WSW) 11:12:19 437.405
Oscar 11 11 Dec 11:07:08 11:10:25 21° 302° (WNW) 11:13:40 145.826/435.025
VELOX 1 11 Dec 11:10:03 11:12:24 14° 86° (E) 11:14:43 145.980
BUGSAT 1 11 Dec 11:11:23 11:15:33 56° 69° (ENE) 11:19:44 437.445
BEESAT 3 11 Dec 11:12:52 11:16:52 69° 40° (NE) 11:20:51 437.485
Cosmos 2499 11 Dec 11:13:07 11:21:51 86° 78° (ENE) 11:29:55 435.465 / 435.565
HUMSAT D 11 Dec 11:16:22 11:20:22 53° 291° (WNW) 11:24:20 437.325/437.525
HO-68 11 Dec 11:23:59 11:28:47 20° 324° (NW) 11:33:35 435.675
Gurwin Techsat 1B 11 Dec 11:27:13 11:31:08 21° 51° (NE) 11:35:04 435.225
TIGRISAT 11 Dec 11:27:50 11:28:52 11° 278° (W) 11:29:54 435.000
GONETS M04 11 Dec 11:39:34 11:48:19 81° 262° (W) 11:57:03
Cosmos 2491 11 Dec 11:47:12 11:48:33 10° 347° (NNW) 11:49:54 435.465 / 435.565
DELFI C3 11 Dec 11:47:50 11:50:37 18° 303° (WNW) 11:53:24 145.870
BEESAT 2 11 Dec 11:54:22 11:58:26 79° 43° (NE) 12:02:29 435.950
NANOSAT C BR1 11 Dec 11:55:06 11:58:47 28° 266° (W) 12:02:29 145.865
AIST 2 11 Dec 11:55:52 11:59:13 22° 7° (N) 12:02:35 435.215
JAS-2 11 Dec 11:59:47 12:04:36 25° 268° (W) 12:09:05 435.910
QB50P2 11 Dec 12:07:20 12:10:33 20° 270° (W) 12:13:46 145.880/145.840
POLYITAN 1 11 Dec 12:07:36 12:10:53 21° 269° (W) 12:14:11 437.675
AISAT 11 Dec 12:08:38 12:12:56 43° 99° (E) 12:17:12 437.250
DUCHIFAT 1 11 Dec 12:14:53 12:18:06 21° 269° (W) 12:21:20 145.980
CUBEBUG 1 11 Dec 12:19:15 12:23:43 72° 104° (ESE) 12:28:08 437.445
QB50P1 11 Dec 12:19:17 12:22:09 17° 272° (W) 12:25:01 145.935-145.965
Oscar 19 11 Dec 12:22:55 12:28:02 74° 70° (ENE) 12:33:14 437.125/150
ESTCUBE 1 11 Dec 12:26:36 12:31:07 69° 289° (WNW) 12:35:37 437.505/2401.250
RS-15 11 Dec 12:29:31 12:41:41 57° 14° (NNE) 12:53:49 29.354- 29.394
UKube-1 11 Dec 12:34:52 12:38:49 32° 96° (E) 12:42:43 .
SPROUT 11 Dec 12:35:11 12:39:25 52° 100° (E) 12:43:36 437.525
PCSat 11 Dec 12:36:08 12:41:24 49° 324° (NW) 12:46:42 145.827
DX 1 11 Dec 12:39:06 12:43:21 44° 99° (E) 12:47:34 434.975-435.025
50 SAT 11 Dec 12:40:55 12:44:30 72° 104° (ESE) 12:48:05 437.505
POPSAT HIP 1 11 Dec 12:43:12 12:44:36 11° 276° (W) 12:46:00 437.405
VELOX 1 11 Dec 12:45:04 12:49:35 84° 105° (ESE) 12:54:04 145.980
BUGSAT 1 11 Dec 12:47:53 12:51:14 22° 268° (W) 12:54:37 437.445
BEESAT 3 11 Dec 12:50:59 12:54:10 23° 240° (WSW) 12:57:20 437.485
AO-7 11 Dec 12:52:03 12:59:28 38° 46° (NE) 13:06:54 29.400- 29.500
HUMSAT D 11 Dec 12:54:35 12:55:07 10° 311° (NW) 12:55:39 437.325/437.525
ITAMSAT 1 11 Dec 13:04:44 13:09:16 31° 58° (ENE) 13:13:48 435.822/435.867
Gurwin Techsat 1B 11 Dec 13:05:07 13:10:28 87° 72° (ENE) 13:15:50 435.225
Cosmos 2499 11 Dec 13:07:02 13:14:00 29° 283° (WNW) 13:20:36 435.465 / 435.565
BEESAT 2 11 Dec 13:32:49 13:35:48 20° 242° (WSW) 13:38:47 435.950
AIST 2 11 Dec 13:34:36 13:38:38 41° 30° (NNE) 13:42:41 435.215
TISAT 1 11 Dec 13:36:23 13:40:25 40° 98° (E) 13:44:23 437.305
GONETS M04 11 Dec 13:37:25 13:43:51 24° 286° (WNW) 13:50:19
ITUPSAT 1 11 Dec 13:39:57 13:42:08 13° 84° (E) 13:44:17 437.325
AISAT 11 Dec 13:45:19 13:49:18 32° 299° (WNW) 13:53:17 437.250
Cosmos 2491 11 Dec 13:47:41 13:50:58 12° 23° (NNE) 13:54:15 435.465 / 435.565
M-CUBED/EXP-1 PRIME 11 Dec 13:55:40 13:57:29 12° 89° (E) 13:59:15 437.505
CUBEBUG 1 11 Dec 13:56:14 13:59:34 21° 304° (NW) 14:02:54 437.445
